SL-24 R/B, 40303

Orbit data source: Space-Track

SL-24 R/B, 40303 is space debris in SSO originally from a launch on Thu, 06 Nov 2014 UTC launched from the Orenburg, Russia (OREN). Debris objects in space refer to the collection of defunct objects orbiting the Earth. Examples of debris include non-operational satellites, rocket bodies, and fragments generated from explosions, collisions, or faulty payload assembly.

Loading next visibility...
Identifier
40303, 2014-070F
Orbit
SSO
Country
Flag of CISCIS
Related business
Manufacturer
Yuzhnoe
Mission
Spacecraft
Bus & Motor
15A18-BR, Unknown motor
Mass
~1,000 kg wet, ~1,000 kg dry
Launch date (UTC)
2014-11-06 (11 years ago)
Launch vehicle
Unknown
Launch site
Orenburg, Russia (OREN)
Object type
Payload
Rocket body
Debris
Shape & HBR
Cyl, 1.5 m
Radar Cross Section
10.603 m², Large (>1 m²)

Expand to show TLE details & history
Last TLE update: 12 hours ago

TLE from 12 hours ago
0 SL-24 R/B
1 40303U 14070F   25339.85202984  .00001278  00000-0  30219-3 0  9998
2 40303  97.1608 291.1901 0947754 319.0377  34.3136 13.15129989531212
Epoch: 2025-12-05T20:26Z
TLE epoch observation values (Epoch: 2025-12-05T20:26:55.378Z)
Latitude
0.00005°
Longitude
-90.42883°
Altitude
637.074 km
Speed
7.817 km/s
True Right ascension
19h 24m 45s
True Declination
0° 00' 00"
Sunlit
Object was in daylight at epoch
Visualization orbit readout
Latitude
Unknown
Longitude
Unknown
Altitude
Unknown
Speed
Unknown
Apparent Right ascension
Unknown
Apparent Declination
Unknown
Sunlit
N/A
Visualization observer readout
Local Sidereal Time
06:09:19
Azimuth
Unknown
Elevation
Unknown
Doppler factor
Unknown
Orbital elements
Apogee altitude
1,918.853 km
Perigee altitude
482.302 km
Semi-major axis
7,578.715 km
Eccentricity
0.09478
Inclination
97.1608°
RAAN
291.1901°
Arg. of periapsis
319.0377°
True anomaly
41.08072°
Mean anomaly
34.3136°
Eccentric anomaly
37.62901°
Mean motion
3.28965 °/min
Orbital period
109.43 mins
BSTAR
0.00030219
Loading maneuver chart data...
Computing Atmospheric mass density...
Loading historical data...
Loading historical data...
Loading historical data...
Loading historical data...
Loading historical data...
Loading historical data...
Loading historical data...

Documentation

Showing up to 5 results
|